Starlink 6085

operational
NORAD ID: 57115 Int'l Des: 2023-090 Owner: SPXS Country: US Constellation: starlink
LEOCIRCULAR

Über Starlink 6085

Beschreibung wird geladen...

Live-Position

3D-Globus wird geladen...

Nächste Überflüge

Höhenverlauf

Altitude vs Time

uPlot chart will show altitude changes over time

Zweizeiliger Elementsatz

1 57115U 23090Q 25350.32346562 .00015501 00000-0 96015-3 0 9995
2 57115 43.0042 2.5031 0012498 23.8921 336.2502 15.09513510137938
Epoch: 16. Dez. 2025 • Age: 20 hours

Aktueller Status

Höhe 541.6 km
Geschwindigkeit 7.59 km/s
Subsatellitenpunkt 18.03°N, 19.24°E
Startdatum 23. Juni 2023
Alter 2.4 years
Typ internet

Technische Details

Klassifizierung Payload
Masse 305.00 kg
Trockenmasse 290.00 kg
Gesamtmasse 305.00 kg
Länge 0.20 m
Durchmesser 2.80 m
Spannweite 9.00 m
Form Box + pan
Hersteller SPXS
Bus-Typ Starlink
Phasenstatus In Orbit
Besitzer/Staat SPXS/US

Große Konstellationen

Loading constellations...